Moline, IL
on Monday, May 27, 2013

Monday
Previous Day Next Day
Daily Summary
 ActualAverageRecord
Temperature
Mean Temperature °F 65°F  
Max Temperature 72°F 76°F 94°F (2012)
Min Temperature 57°F 54°F 34°F (1992)
Degree Days
Heating Degree Days 0 3  
Month to date heating degree days 150 151  
Since 1 July heating degree days 6308 6174  
Cooling Degree Days 0 3  
Month to date cooling degree days 55 49  
Year to date cooling degree days 64 63  
Growing Degree Days14 (Base °F )  
Moisture
Dew Point 61°F   
Average Humidity 89    
Maximum Humidity 100    
Minimum Humidity 78    
Precipitation
Precipitation 0.33 in 0.14 in 1.78 in (1973)
Month to date precipitation 6.51 3.74  
Year to date precipitation 21.69 13.28  
Snow
Snow 0.00 in 0.00 in in ()
Month to date snowfall 0.0 0.0  
Since 1 July snowfall 34.5 31.6  
Snow Depth 0.00 in   
Wind
Wind Speed 9 mph   
Max Wind Speed 20 mph   
Max Gust Speed 24 mph   
Visibility 6 miles   
Events Rain , Thunderstorm   

Key: T is trace of precipitation, MM is missing value
Source: NWS Daily Summary
Time(CDT)TemperatureDew PointHumidity Pressure Visibility Wind DirectionWind SpeedGust SpeedPrecipitationEvents Conditions
12:52 AM 57.9°F 57.0°F 97% 30.02 in 7.0 miles East 11.5 mph - N/A   Overcast
1:20 AM 57.2°F 57.2°F 100% 30.01 in 5.0 miles East 10.4 mph - N/A   Overcast
1:52 AM 57.9°F 55.9°F 93% 30.02 in 4.0 miles NE 6.9 mph - N/A   Overcast
2:08 AM 57.2°F 55.4°F 94% 30.02 in 4.0 miles ENE 6.9 mph - N/A Thunderstorm Overcast
2:33 AM 57.2°F 55.4°F 94% 30.00 in 3.0 miles ENE 12.7 mph - 0.00 in Rain Heavy Rain
2:50 AM 57.2°F 55.4°F 94% 30.00 in 4.0 miles ENE 11.5 mph - 0.04 in Rain Light Rain
2:52 AM 57.9°F 55.9°F 93% 30.01 in 4.0 miles East 11.5 mph - 0.04 in Rain Rain
3:02 AM 57.2°F 55.4°F 94% 30.00 in 4.0 miles East 8.1 mph - 0.03 in Rain Rain
3:52 AM 59.0°F 57.0°F 93% 29.98 in 8.0 miles SE 9.2 mph - 0.08 in   Overcast
4:49 AM 59.0°F 57.2°F 94% 29.93 in 2.5 miles Variable 4.6 mph 17.3 mph 0.04 in Rain Heavy Rain
4:52 AM 57.9°F 57.0°F 97% 29.94 in 2.0 miles NNE 8.1 mph - 0.06 in Rain Heavy Rain
5:01 AM 59.0°F 57.2°F 94% 29.95 in 3.0 miles East 9.2 mph - 0.05 in Rain Rain
5:52 AM 57.9°F 57.0°F 97% 29.95 in 4.0 miles East 11.5 mph - 0.05 in   Overcast
6:52 AM 59.0°F 57.0°F 93% 29.96 in 4.0 miles East 6.9 mph - N/A   Overcast
7:52 AM 60.1°F 57.9°F 93% 29.99 in 3.0 miles ESE 4.6 mph - N/A   Overcast
8:14 AM 60.8°F 57.2°F 88% 29.98 in 2.5 miles East 10.4 mph - N/A   Overcast
8:52 AM 60.1°F 57.9°F 93% 29.97 in 2.5 miles East 9.2 mph - N/A   Overcast
9:52 AM 62.1°F 59.0°F 90% 29.92 in 2.0 miles ESE 6.9 mph - N/A   Overcast
10:30 AM 62.6°F 60.8°F 94% 29.89 in 2.0 miles ESE 11.5 mph - N/A   Overcast
10:52 AM 63.0°F 60.1°F 90% 29.91 in 3.0 miles SE 6.9 mph - N/A   Overcast
11:52 AM 64.9°F 62.1°F 90% 29.91 in 6.0 miles ESE 8.1 mph - N/A   Overcast
12:35 PM 66.2°F 62.6°F 88% 29.91 in 9.0 miles SSE 5.8 mph - N/A   Overcast
12:52 PM 66.9°F 63.0°F 87% 29.91 in 8.0 miles SE 5.8 mph - N/A   Overcast
1:52 PM 68.0°F 64.0°F 87% 29.86 in 8.0 miles ESE 9.2 mph - 0.00 in Rain Light Rain
2:37 PM 69.8°F 64.4°F 83% 29.86 in 8.0 miles ESE 12.7 mph - 0.01 in   Overcast
2:52 PM 68.0°F 64.0°F 87% 29.84 in 8.0 miles ESE 13.8 mph - 0.01 in   Overcast
3:52 PM 69.1°F 64.0°F 84% 29.80 in 7.0 miles East 15.0 mph - N/A   Overcast
4:09 PM 69.8°F 64.4°F 83% 29.80 in 7.0 miles East 16.1 mph - N/A   Overcast
4:44 PM 69.8°F 64.4°F 83% 29.80 in 9.0 miles ESE 18.4 mph - N/A   Overcast
4:52 PM 70.0°F 63.0°F 78% 29.80 in 9.0 miles ESE 15.0 mph - N/A   Overcast
5:52 PM 72.0°F 64.0°F 76% 29.78 in 9.0 miles East 15.0 mph - N/A   Mostly Cloudy
6:52 PM 70.0°F 64.0°F 81% 29.79 in 7.0 miles SE 11.5 mph - N/A   Mostly Cloudy
6:59 PM 69.8°F 64.4°F 83% 29.79 in 7.0 miles SE 12.7 mph - N/A   Overcast
7:23 PM 69.8°F 64.4°F 83% 29.80 in 6.0 miles ESE 10.4 mph - N/A   Haze
7:52 PM 69.1°F 64.0°F 84% 29.80 in 6.0 miles ESE 9.2 mph - N/A   Haze
8:45 PM 68.0°F 64.4°F 88% 29.80 in 8.0 miles East 6.9 mph - N/A   Overcast
8:52 PM 68.0°F 64.0°F 87% 29.80 in 7.0 miles East 5.8 mph - N/A   Overcast
9:52 PM 66.9°F 64.9°F 93% 29.81 in 6.0 miles ESE 3.5 mph - 0.08 in   Overcast
9:59 PM 66.2°F 64.4°F 94% 29.81 in 6.0 miles East 3.5 mph - N/A   Overcast
10:52 PM 66.0°F 64.9°F 96% 29.81 in 6.0 miles East 5.8 mph - N/A   Overcast
11:52 PM 66.0°F 64.0°F 93% 29.79 in 7.0 miles East 4.6 mph - 0.01 in   Overcast
Astronomy
Sunrise:05:33 AM (CDT) Moon Rise:11:04 PM (CDT)5/27
Sunset:08:25 PM (CDT) Moon Set:08:11 AM (CDT)5/27
Moon Phase
May. 27 May. 31 Jun. 08 Jun. 16 Jun. 23

Copyright © 2014 The Weather Underground, Inc.


Local events heading








  Today is Friday, Sept. 19, the 262nd day of 2014. There are 103 days left in the year.
1864 -- 150 years ago: Charles M. Osborn of this city, a lawyer of prominence, who voted for Lincoln in 1860 is now out strong for McClellan and will take the stump for him.
1889 -- 125 years ago: The George Fleming company had begun its dried fruit packing in a branch plant on 16th Street, Rock Island, employing nearly a hundred workers.
1914 -- 100 years ago: The cornerstone of the new Eagles home was laid. Building committee members were John Kobeman, Fred Ehmke and Frank Wich.
1939 -- 75 years ago: Former Kaiser Wilhelm, in exile, is sad as the Nazis march with communists.
1964 -- 50 years ago: Ninety-two members of the acappella choir at Davenport's West High School today accepted an invitation to perform at the New York World's Fair on June 13, 1965.
1989 -- 25 years ago: A Rock Island woman is one of 50 winners of $10,000 in cash in the Illinois State Lottery's "Celebration "89" instant ticket game. Dawn Loeffler was the third winner to be chosen through daily drawings that began Aug. 28 and will run 50 consecutive days.






(More History)